STARLINK-33838, 63500

Orbit data source: Space-Track

STARLINK-33838, 63500 is a payload satellite owned by SpaceX/Seattle (US) in LEO that was launched on Mon, 07 Apr 2025 UTC via an FALCON 9 launch vehicle from the Air Force Western Test Range (AFWTR). Payload-class satellites include a variety of spacecraft equipped with specific instruments for various scientific and technological missions. These include communications satellites like Starlink; space stations such as the ISS; scientific satellites like the Hubble; Earth observation satellites from companies like Planet Labs, Umbra, and HawkEye 360; GPS; miniature CubeSats for education and research; and military/defense satellites.

Loading next visibility...
Identifier
63500, 2025-071H
Orbit
LEO
Country
Flag of USUS
Related business
Manufacturer
SpaceX/Seattle
Mission
Operational Commercial Communications
Bus & Motor
STARLINK V2MO, Unknown motor
Mass
575 kg wet, ~530 kg dry
Launch date (UTC)
2025-04-07 (5 months ago)
Launch vehicle
FALCON 9
Launch site
Air Force Western Test Range (AFWTR)
Object type
Payload
Rocket body
Debris
Shape & HBR
Box + 1 Pan, 14.5 m
Radar Cross Section
41.120 m², Large (>1 m²)

Expand to show TLE details & history
Last TLE update: 16 hours ago

TLE from 16 hours ago
0 STARLINK-33838
1 63500U 25071H   25259.18297271  .00045078  00000-0  15234-2 0  9990
2 63500  53.1557 230.3802 0001936  97.0421 263.0800 15.30231705 25847
Epoch: 2025-09-16T04:23Z
TLE epoch observation values (Epoch: 2025-09-16T04:23:28.842Z)
Latitude
-0°
Longitude
169.13309°
Altitude
476.18 km
Speed
7.629 km/s
True Right ascension
15h 21m 31s
True Declination
0° 00' 00"
Sunlit
Object was in daylight at epoch
Visualization orbit readout
Latitude
Unknown
Longitude
Unknown
Altitude
Unknown
Speed
Unknown
Apparent Right ascension
Unknown
Apparent Declination
Unknown
Sunlit
N/A
Visualization observer readout
Local Sidereal Time
12:51:11
Azimuth
Unknown
Elevation
Unknown
Doppler factor
Unknown
Orbital elements
Apogee altitude
476.704 km
Perigee altitude
474.051 km
Semi-major axis
6,853.515 km
Eccentricity
0.00019
Inclination
53.1557°
RAAN
230.3802°
Arg. of periapsis
97.0421°
True anomaly
263.05798°
Mean anomaly
263.08°
Eccentric anomaly
263.06899°
Mean motion
3.82537 °/min
Orbital period
94.11 mins
BSTAR
0.0015234
Loading maneuver chart data...
Computing Atmospheric mass density...
Loading historical data...
Loading historical data...
Loading historical data...
Loading historical data...
Loading historical data...
Loading historical data...
Loading historical data...

Documentation

Showing up to 5 results
|